Year,Month,Day,Hour,Minute,Value (Times are PST for temperature in C)
2009,08,14,00,00,13.00
2009,08,14,00,01,13.00
2009,08,14,00,02,13.00
2009,08,14,00,03,13.00
2009,08,14,00,04,13.00
2009,08,14,00,05,13.00
2009,08,14,00,06,13.00
2009,08,14,00,07,13.00
2009,08,14,00,08,13.00
2009,08,14,00,09,13.00
2009,08,14,00,10,13.00
2009,08,14,00,11,13.00
2009,08,14,00,12,13.00
2009,08,14,00,13,13.10
2009,08,14,00,14,13.10
2009,08,14,00,15,13.10
2009,08,14,00,16,13.10
2009,08,14,00,17,13.10
2009,08,14,00,18,13.10
2009,08,14,00,19,13.10
2009,08,14,00,20,13.10
2009,08,14,00,21,13.10
2009,08,14,00,22,13.10
2009,08,14,00,23,13.10
2009,08,14,00,24,13.10
2009,08,14,00,25,13.10
2009,08,14,00,26,13.10
2009,08,14,00,27,13.10
2009,08,14,00,28,13.10
2009,08,14,00,29,13.10
2009,08,14,00,30,13.10
2009,08,14,00,31,13.10
2009,08,14,00,32,13.10
2009,08,14,00,33,13.10
2009,08,14,00,34,13.10
2009,08,14,00,35,13.10
2009,08,14,00,36,13.10
2009,08,14,00,37,13.10
2009,08,14,00,38,13.10
2009,08,14,00,39,13.10
2009,08,14,00,40,13.10
2009,08,14,00,41,13.10
2009,08,14,00,42,13.10
2009,08,14,00,43,13.10
2009,08,14,00,44,13.10
2009,08,14,00,45,13.10
2009,08,14,00,46,13.10
2009,08,14,00,47,13.10
2009,08,14,00,48,13.10
2009,08,14,00,49,13.10
2009,08,14,00,50,13.10
2009,08,14,00,51,13.10
2009,08,14,00,52,13.10
2009,08,14,00,53,13.10
2009,08,14,00,54,13.10
2009,08,14,00,55,13.10
2009,08,14,00,56,13.10
2009,08,14,00,57,13.10
2009,08,14,00,58,13.10
2009,08,14,00,59,13.10
2009,08,14,01,00,13.10
2009,08,14,01,01,13.10
2009,08,14,01,02,13.00
2009,08,14,01,03,13.00
2009,08,14,01,04,13.00
2009,08,14,01,05,13.00
2009,08,14,01,06,13.00
2009,08,14,01,07,13.00
2009,08,14,01,08,13.00
2009,08,14,01,09,12.90
2009,08,14,01,10,12.90
2009,08,14,01,11,12.90
2009,08,14,01,12,12.90
2009,08,14,01,13,12.90
2009,08,14,01,14,12.90
2009,08,14,01,15,12.80
2009,08,14,01,16,12.80
2009,08,14,01,17,12.80
2009,08,14,01,18,12.80
2009,08,14,01,19,12.80
2009,08,14,01,20,12.80
2009,08,14,01,21,12.80
2009,08,14,01,22,12.80
2009,08,14,01,23,12.80
2009,08,14,01,24,12.80
2009,08,14,01,25,12.80
2009,08,14,01,26,12.80
2009,08,14,01,27,12.70
2009,08,14,01,28,12.70
2009,08,14,01,29,12.70
2009,08,14,01,30,12.70
2009,08,14,01,31,12.70
2009,08,14,01,32,12.70
2009,08,14,01,33,12.70
2009,08,14,01,34,12.70
2009,08,14,01,35,12.70
2009,08,14,01,36,12.70
2009,08,14,01,37,12.70
2009,08,14,01,38,12.70
2009,08,14,01,39,12.70
2009,08,14,01,40,12.70
2009,08,14,01,41,12.70
2009,08,14,01,42,12.70
2009,08,14,01,43,12.70
2009,08,14,01,44,12.70
2009,08,14,01,45,12.70
2009,08,14,01,46,12.70
2009,08,14,01,47,12.70
2009,08,14,01,48,12.70
2009,08,14,01,49,12.70
2009,08,14,01,50,12.70
2009,08,14,01,51,12.70
2009,08,14,01,52,12.70
2009,08,14,01,53,12.70
2009,08,14,01,54,12.70
2009,08,14,01,55,12.70
2009,08,14,01,56,12.70
2009,08,14,01,57,12.70
2009,08,14,01,58,12.70
2009,08,14,01,59,12.70
2009,08,14,02,00,12.70
2009,08,14,02,01,12.70
2009,08,14,02,02,12.60
2009,08,14,02,03,12.60
2009,08,14,02,04,12.60
2009,08,14,02,05,12.60
2009,08,14,02,06,12.60
2009,08,14,02,07,12.60
2009,08,14,02,08,12.60
2009,08,14,02,09,12.60
2009,08,14,02,10,12.60
2009,08,14,02,11,12.60
2009,08,14,02,12,12.60
2009,08,14,02,13,12.60
2009,08,14,02,14,12.60
2009,08,14,02,15,12.60
2009,08,14,02,16,12.60
2009,08,14,02,17,12.60
2009,08,14,02,18,12.60
2009,08,14,02,19,12.60
2009,08,14,02,20,12.60
2009,08,14,02,21,12.60
2009,08,14,02,22,12.60
2009,08,14,02,23,12.60
2009,08,14,02,24,12.60
2009,08,14,02,25,12.60
2009,08,14,02,26,12.60
2009,08,14,02,27,12.60
2009,08,14,02,28,12.60
2009,08,14,02,29,12.60
2009,08,14,02,30,12.60
2009,08,14,02,31,12.60
2009,08,14,02,32,12.60
2009,08,14,02,33,12.60
2009,08,14,02,34,12.60
2009,08,14,02,35,12.60
2009,08,14,02,36,12.60
2009,08,14,02,37,12.60
2009,08,14,02,38,12.60
2009,08,14,02,39,12.60
2009,08,14,02,40,12.60
2009,08,14,02,41,12.50
2009,08,14,02,42,12.50
2009,08,14,02,43,12.50
2009,08,14,02,44,12.50
2009,08,14,02,45,12.50
2009,08,14,02,46,12.50
2009,08,14,02,47,12.50
2009,08,14,02,48,12.50
2009,08,14,02,49,12.50
2009,08,14,02,50,12.50
2009,08,14,02,51,12.50
2009,08,14,02,52,12.50
2009,08,14,02,53,12.50
2009,08,14,02,54,12.50
2009,08,14,02,55,12.50
2009,08,14,02,56,12.50
2009,08,14,02,57,12.40
2009,08,14,02,58,12.40
2009,08,14,02,59,12.40
2009,08,14,03,00,12.40
2009,08,14,03,01,12.40
2009,08,14,03,02,12.40
2009,08,14,03,03,12.40
2009,08,14,03,04,12.40
2009,08,14,03,05,12.40
2009,08,14,03,06,12.40
2009,08,14,03,07,12.30
2009,08,14,03,08,12.30
2009,08,14,03,09,12.30
2009,08,14,03,10,12.30
2009,08,14,03,11,12.30
2009,08,14,03,12,12.30
2009,08,14,03,13,12.30
2009,08,14,03,14,12.30
2009,08,14,03,15,12.30
2009,08,14,03,16,12.30
2009,08,14,03,17,12.30
2009,08,14,03,18,12.30
2009,08,14,03,19,12.30
2009,08,14,03,20,12.30
2009,08,14,03,21,12.30
2009,08,14,03,22,12.20
2009,08,14,03,23,12.20
2009,08,14,03,24,12.20
2009,08,14,03,25,12.20
2009,08,14,03,26,12.20
2009,08,14,03,27,12.20
2009,08,14,03,28,12.20
2009,08,14,03,29,12.20
2009,08,14,03,30,12.20
2009,08,14,03,31,12.20
2009,08,14,03,32,12.20
2009,08,14,03,33,12.20
2009,08,14,03,34,12.20
2009,08,14,03,35,12.20
2009,08,14,03,36,12.20
2009,08,14,03,37,12.20
2009,08,14,03,38,12.20
2009,08,14,03,39,12.20
2009,08,14,03,40,12.20
2009,08,14,03,41,12.20
2009,08,14,03,42,12.20
2009,08,14,03,43,12.20
2009,08,14,03,44,12.20
2009,08,14,03,45,12.20
2009,08,14,03,46,12.20
2009,08,14,03,47,12.20
2009,08,14,03,48,12.20
2009,08,14,03,49,12.20
2009,08,14,03,50,12.20
2009,08,14,03,51,12.20
2009,08,14,03,52,12.20
2009,08,14,03,53,12.20
2009,08,14,03,54,12.20
2009,08,14,03,55,12.20
2009,08,14,03,56,12.20
2009,08,14,03,57,12.20
2009,08,14,03,58,12.20
2009,08,14,03,59,12.30
2009,08,14,04,00,12.30
2009,08,14,04,01,12.30
2009,08,14,04,02,12.30
2009,08,14,04,03,12.30
2009,08,14,04,04,12.30
2009,08,14,04,05,12.30
2009,08,14,04,06,12.30
2009,08,14,04,07,12.30
2009,08,14,04,08,12.30
2009,08,14,04,09,12.30
2009,08,14,04,10,12.30
2009,08,14,04,11,12.30
2009,08,14,04,12,12.30
2009,08,14,04,13,12.30
2009,08,14,04,14,12.30
2009,08,14,04,15,12.30
2009,08,14,04,16,12.30
2009,08,14,04,17,12.30
2009,08,14,04,18,12.30
2009,08,14,04,19,12.30
2009,08,14,04,20,12.30
2009,08,14,04,21,12.30
2009,08,14,04,22,12.30
2009,08,14,04,23,12.30
2009,08,14,04,24,12.30
2009,08,14,04,25,12.30
2009,08,14,04,26,12.30
2009,08,14,04,27,12.30
2009,08,14,04,28,12.30
2009,08,14,04,29,12.30
2009,08,14,04,30,12.30
2009,08,14,04,31,12.40
2009,08,14,04,32,12.40
2009,08,14,04,33,12.40
2009,08,14,04,34,12.40
2009,08,14,04,35,12.40
2009,08,14,04,36,12.40
2009,08,14,04,37,12.40
2009,08,14,04,38,12.40
2009,08,14,04,39,12.40
2009,08,14,04,40,12.40
2009,08,14,04,41,12.40
2009,08,14,04,42,12.40
2009,08,14,04,43,12.40
2009,08,14,04,44,12.40
2009,08,14,04,45,12.40
2009,08,14,04,46,12.40
2009,08,14,04,47,12.40
2009,08,14,04,48,12.40
2009,08,14,04,49,12.40
2009,08,14,04,50,12.40
2009,08,14,04,51,12.40
2009,08,14,04,52,12.40
2009,08,14,04,53,12.40
2009,08,14,04,54,12.50
2009,08,14,04,55,12.50
2009,08,14,04,56,12.50
2009,08,14,04,57,12.50
2009,08,14,04,58,12.50
2009,08,14,04,59,12.50
2009,08,14,05,00,12.50
2009,08,14,05,01,12.50
2009,08,14,05,02,12.50
2009,08,14,05,03,12.50
2009,08,14,05,04,12.50
2009,08,14,05,05,12.50
2009,08,14,05,06,12.50
2009,08,14,05,07,12.50
2009,08,14,05,08,12.50
2009,08,14,05,09,12.50
2009,08,14,05,10,12.50
2009,08,14,05,11,12.50
2009,08,14,05,12,12.50
2009,08,14,05,13,12.50
2009,08,14,05,14,12.50
2009,08,14,05,15,12.50
2009,08,14,05,16,12.50
2009,08,14,05,17,12.50
2009,08,14,05,18,12.50
2009,08,14,05,19,12.50
2009,08,14,05,20,12.50
2009,08,14,05,21,12.50
2009,08,14,05,22,12.50
2009,08,14,05,23,12.50
2009,08,14,05,24,12.50
2009,08,14,05,25,12.50
2009,08,14,05,26,12.50
2009,08,14,05,27,12.50
2009,08,14,05,28,12.50
2009,08,14,05,29,12.50
2009,08,14,05,30,12.50
2009,08,14,05,31,12.50
2009,08,14,05,32,12.50
2009,08,14,05,33,12.50
2009,08,14,05,34,12.50
2009,08,14,05,35,12.50
2009,08,14,05,36,12.50
2009,08,14,05,37,12.50
2009,08,14,05,38,12.50
2009,08,14,05,39,12.50
2009,08,14,05,40,12.60
2009,08,14,05,41,12.50
2009,08,14,05,42,12.50
2009,08,14,05,43,12.50
2009,08,14,05,44,12.50
2009,08,14,05,45,12.50
2009,08,14,05,46,12.50
2009,08,14,05,47,12.50
2009,08,14,05,48,12.50
2009,08,14,05,49,12.50
2009,08,14,05,50,12.50
2009,08,14,05,51,12.50
2009,08,14,05,52,12.50
2009,08,14,05,53,12.50
2009,08,14,05,54,12.50
2009,08,14,05,55,12.50
2009,08,14,05,56,12.50
2009,08,14,05,57,12.50
2009,08,14,05,58,12.50
2009,08,14,05,59,12.60
2009,08,14,06,00,12.50
2009,08,14,06,01,12.50
2009,08,14,06,02,12.50
2009,08,14,06,03,12.50
2009,08,14,06,04,12.50
2009,08,14,06,05,12.50
2009,08,14,06,06,12.50
2009,08,14,06,07,12.50
2009,08,14,06,08,12.50
2009,08,14,06,09,12.50
2009,08,14,06,10,12.50
2009,08,14,06,11,12.50
2009,08,14,06,12,12.50
2009,08,14,06,13,12.50
2009,08,14,06,14,12.50
2009,08,14,06,15,12.50
2009,08,14,06,16,12.50
2009,08,14,06,17,12.50
2009,08,14,06,18,12.50
2009,08,14,06,19,12.50
2009,08,14,06,20,12.50
2009,08,14,06,21,12.60
2009,08,14,06,22,12.60
2009,08,14,06,23,12.60
2009,08,14,06,24,12.60
2009,08,14,06,25,12.60
2009,08,14,06,26,12.60
2009,08,14,06,27,12.60
2009,08,14,06,28,12.60
2009,08,14,06,29,12.60
2009,08,14,06,30,12.60
2009,08,14,06,31,12.60
2009,08,14,06,32,12.60
2009,08,14,06,33,12.60
2009,08,14,06,34,12.60
2009,08,14,06,35,12.60
2009,08,14,06,36,12.60
2009,08,14,06,37,12.60
2009,08,14,06,38,12.60
2009,08,14,06,39,12.60
2009,08,14,06,40,12.60
2009,08,14,06,41,12.60
2009,08,14,06,42,12.60
2009,08,14,06,43,12.60
2009,08,14,06,44,12.70
2009,08,14,06,45,12.70
2009,08,14,06,46,12.70
2009,08,14,06,47,12.70
2009,08,14,06,48,12.70
2009,08,14,06,49,12.70
2009,08,14,06,50,12.70
2009,08,14,06,51,12.70
2009,08,14,06,52,12.70
2009,08,14,06,53,12.70
2009,08,14,06,54,12.70
2009,08,14,06,55,12.70
2009,08,14,06,56,12.70
2009,08,14,06,57,12.70
2009,08,14,06,58,12.70
2009,08,14,06,59,12.70
2009,08,14,07,00,12.70
2009,08,14,07,01,12.70
2009,08,14,07,02,12.70
2009,08,14,07,03,12.70
2009,08,14,07,04,12.70
2009,08,14,07,05,12.80
2009,08,14,07,06,12.80
2009,08,14,07,07,12.80
2009,08,14,07,08,12.80
2009,08,14,07,09,12.80
2009,08,14,07,10,12.80
2009,08,14,07,11,12.80
2009,08,14,07,12,12.80
2009,08,14,07,13,12.80
2009,08,14,07,14,12.80
2009,08,14,07,15,12.80
2009,08,14,07,16,12.80
2009,08,14,07,17,12.80
2009,08,14,07,18,12.80
2009,08,14,07,19,12.80
2009,08,14,07,20,12.90
2009,08,14,07,21,12.90
2009,08,14,07,22,12.90
2009,08,14,07,23,12.90
2009,08,14,07,24,12.90
2009,08,14,07,25,12.90
2009,08,14,07,26,12.90
2009,08,14,07,27,12.90
2009,08,14,07,28,12.90
2009,08,14,07,29,12.90
2009,08,14,07,30,13.00
2009,08,14,07,31,13.00
2009,08,14,07,32,13.00
2009,08,14,07,33,13.00
2009,08,14,07,34,13.00
2009,08,14,07,35,13.10
2009,08,14,07,36,13.10
2009,08,14,07,37,13.10
2009,08,14,07,38,13.10
2009,08,14,07,39,13.10
2009,08,14,07,40,13.10
2009,08,14,07,41,13.10
2009,08,14,07,42,13.20
2009,08,14,07,43,13.20
2009,08,14,07,44,13.20
2009,08,14,07,45,13.20
2009,08,14,07,46,13.20
2009,08,14,07,47,13.20
2009,08,14,07,48,13.20
2009,08,14,07,49,13.20
2009,08,14,07,50,13.30
2009,08,14,07,51,13.30
2009,08,14,07,52,13.30
2009,08,14,07,53,13.30
2009,08,14,07,54,13.30
2009,08,14,07,55,13.30
2009,08,14,07,56,13.30
2009,08,14,07,57,13.30
2009,08,14,07,58,13.40
2009,08,14,07,59,13.40
2009,08,14,08,00,13.40
2009,08,14,08,01,13.40
2009,08,14,08,02,13.50
2009,08,14,08,03,13.50
2009,08,14,08,04,13.50
2009,08,14,08,05,13.50
2009,08,14,08,06,13.60
2009,08,14,08,07,13.60
2009,08,14,08,08,13.60
2009,08,14,08,09,13.60
2009,08,14,08,10,13.60
2009,08,14,08,11,13.60
2009,08,14,08,12,13.60
2009,08,14,08,13,13.60
2009,08,14,08,14,13.60
2009,08,14,08,15,13.60
2009,08,14,08,16,13.70
2009,08,14,08,17,13.70
2009,08,14,08,18,13.70
2009,08,14,08,19,13.70
2009,08,14,08,20,13.70
2009,08,14,08,21,13.70
2009,08,14,08,22,13.70
2009,08,14,08,23,13.80
2009,08,14,08,24,13.80
2009,08,14,08,25,13.80
2009,08,14,08,26,13.80
2009,08,14,08,27,13.80
2009,08,14,08,28,13.90
2009,08,14,08,29,13.90
2009,08,14,08,30,13.90
2009,08,14,08,31,13.90
2009,08,14,08,32,14.00
2009,08,14,08,33,14.00
2009,08,14,08,34,14.00
2009,08,14,08,35,14.00
2009,08,14,08,36,14.10
2009,08,14,08,37,14.10
2009,08,14,08,38,14.10
2009,08,14,08,39,14.10
2009,08,14,08,40,14.10
2009,08,14,08,41,14.10
2009,08,14,08,42,14.10
2009,08,14,08,43,14.20
2009,08,14,08,44,14.20
2009,08,14,08,45,14.20
2009,08,14,08,46,14.20
2009,08,14,08,47,14.20
2009,08,14,08,48,14.20
2009,08,14,08,49,14.20
2009,08,14,08,50,14.30
2009,08,14,08,51,14.30
2009,08,14,08,52,14.30
2009,08,14,08,53,14.30
2009,08,14,08,54,14.40
2009,08,14,08,55,14.40
2009,08,14,08,56,14.40
2009,08,14,08,57,14.50
2009,08,14,08,58,14.50
2009,08,14,08,59,14.60
2009,08,14,09,00,14.60
2009,08,14,09,01,14.70
2009,08,14,09,02,14.70
2009,08,14,09,03,14.80
2009,08,14,09,04,14.80
2009,08,14,09,05,14.80
2009,08,14,09,06,14.80
2009,08,14,09,07,14.90
2009,08,14,09,08,14.90
2009,08,14,09,09,15.00
2009,08,14,09,10,15.00
2009,08,14,09,11,15.00
2009,08,14,09,12,15.00
2009,08,14,09,13,15.00
2009,08,14,09,14,15.00
2009,08,14,09,15,15.00
2009,08,14,09,16,15.00
2009,08,14,09,17,15.00
2009,08,14,09,18,15.00
2009,08,14,09,19,15.00
2009,08,14,09,20,15.00
2009,08,14,09,21,15.00
2009,08,14,09,22,15.00
2009,08,14,09,23,15.00
2009,08,14,09,24,15.00
2009,08,14,09,25,15.00
2009,08,14,09,26,15.00
2009,08,14,09,27,15.00
2009,08,14,09,28,15.00
2009,08,14,09,29,15.00
2009,08,14,09,30,15.00
2009,08,14,09,31,15.00
2009,08,14,09,32,15.00
2009,08,14,09,33,15.00
2009,08,14,09,34,15.00
2009,08,14,09,35,15.00
2009,08,14,09,36,15.00
2009,08,14,09,37,15.10
2009,08,14,09,38,15.10
2009,08,14,09,39,15.20
2009,08,14,09,40,15.20
2009,08,14,09,41,15.20
2009,08,14,09,42,15.30
2009,08,14,09,43,15.30
2009,08,14,09,44,15.30
2009,08,14,09,45,15.40
2009,08,14,09,46,15.40
2009,08,14,09,47,15.50
2009,08,14,09,48,15.60
2009,08,14,09,49,15.60
2009,08,14,09,50,15.70
2009,08,14,09,51,15.80
2009,08,14,09,52,15.90
2009,08,14,09,53,15.90
2009,08,14,09,54,15.90
2009,08,14,09,55,16.00
2009,08,14,09,56,16.10
2009,08,14,09,57,16.20
2009,08,14,09,58,16.20
2009,08,14,09,59,16.20
2009,08,14,10,00,16.20
2009,08,14,10,01,16.30
2009,08,14,10,02,16.30
2009,08,14,10,03,16.30
2009,08,14,10,04,16.30
2009,08,14,10,05,16.30
2009,08,14,10,06,16.30
2009,08,14,10,07,16.30
2009,08,14,10,08,16.30
2009,08,14,10,09,16.30
2009,08,14,10,10,16.30
2009,08,14,10,11,16.20
2009,08,14,10,12,16.20
2009,08,14,10,13,16.20
2009,08,14,10,14,16.20
2009,08,14,10,15,16.30
2009,08,14,10,16,16.40
2009,08,14,10,17,16.40
2009,08,14,10,18,16.40
2009,08,14,10,19,16.50
2009,08,14,10,20,16.50
2009,08,14,10,21,16.60
2009,08,14,10,22,16.70
2009,08,14,10,23,16.70
2009,08,14,10,24,16.80
2009,08,14,10,25,16.80
2009,08,14,10,26,16.80
2009,08,14,10,27,16.90
2009,08,14,10,28,16.90
2009,08,14,10,29,16.80
2009,08,14,10,30,16.70
2009,08,14,10,31,16.80
2009,08,14,10,32,16.80
2009,08,14,10,33,16.90
2009,08,14,10,34,17.00
2009,08,14,10,35,17.00
2009,08,14,10,36,17.10
2009,08,14,10,37,17.10
2009,08,14,10,38,17.20
2009,08,14,10,39,17.20
2009,08,14,10,40,17.10
2009,08,14,10,41,17.10
2009,08,14,10,42,17.20
2009,08,14,10,43,17.20
2009,08,14,10,44,17.20
2009,08,14,10,45,17.20
2009,08,14,10,46,17.30
2009,08,14,10,47,17.30
2009,08,14,10,48,17.30
2009,08,14,10,49,17.30
2009,08,14,10,50,17.30
2009,08,14,10,51,17.30
2009,08,14,10,52,17.30
2009,08,14,10,53,17.30
2009,08,14,10,54,17.30
2009,08,14,10,55,17.40
2009,08,14,10,56,17.40
2009,08,14,10,57,17.40
2009,08,14,10,58,17.40
2009,08,14,10,59,17.40
2009,08,14,11,00,17.40
2009,08,14,11,01,17.40
2009,08,14,11,02,17.50
2009,08,14,11,03,17.50
2009,08,14,11,04,17.50
2009,08,14,11,05,17.40
2009,08,14,11,06,17.40
2009,08,14,11,07,17.30
2009,08,14,11,08,17.30
2009,08,14,11,09,17.10
2009,08,14,11,10,17.00
2009,08,14,11,11,17.00
2009,08,14,11,12,16.90
2009,08,14,11,13,17.00
2009,08,14,11,14,17.00
2009,08,14,11,15,16.90
2009,08,14,11,16,16.90
2009,08,14,11,17,16.90
2009,08,14,11,18,16.90
2009,08,14,11,19,16.90
2009,08,14,11,20,17.00
2009,08,14,11,21,17.10
2009,08,14,11,22,17.20
2009,08,14,11,23,17.20
2009,08,14,11,24,17.30
2009,08,14,11,25,17.20
2009,08,14,11,26,17.20
2009,08,14,11,27,17.20
2009,08,14,11,28,17.20
2009,08,14,11,29,17.20
2009,08,14,11,30,17.20
2009,08,14,11,31,17.20
2009,08,14,11,32,17.20
2009,08,14,11,33,17.20
2009,08,14,11,34,17.20
2009,08,14,11,35,17.20
2009,08,14,11,36,17.10
2009,08,14,11,37,17.00
2009,08,14,11,38,17.00
2009,08,14,11,39,17.10
2009,08,14,11,40,17.10
2009,08,14,11,41,17.10
2009,08,14,11,42,17.10
2009,08,14,11,43,17.20
2009,08,14,11,44,17.20
2009,08,14,11,45,17.30
2009,08,14,11,46,17.50
2009,08,14,11,47,17.60
2009,08,14,11,48,17.60
2009,08,14,11,49,17.60
2009,08,14,11,50,17.50
2009,08,14,11,51,17.40
2009,08,14,11,52,17.30
2009,08,14,11,53,17.20
2009,08,14,11,54,17.10
2009,08,14,11,55,17.00
2009,08,14,11,56,17.00
2009,08,14,11,57,16.90
2009,08,14,11,58,17.00
2009,08,14,11,59,17.00
2009,08,14,12,00,17.10
2009,08,14,12,01,17.20
2009,08,14,12,02,17.40
2009,08,14,12,03,17.50
2009,08,14,12,04,17.60
2009,08,14,12,05,17.70
2009,08,14,12,06,17.80
2009,08,14,12,07,17.80
2009,08,14,12,08,17.80
2009,08,14,12,09,17.80
2009,08,14,12,10,17.70
2009,08,14,12,11,17.70
2009,08,14,12,12,17.60
2009,08,14,12,13,17.60
2009,08,14,12,14,17.50
2009,08,14,12,15,17.40
2009,08,14,12,16,17.40
2009,08,14,12,17,17.30
2009,08,14,12,18,17.20
2009,08,14,12,19,17.10
2009,08,14,12,20,17.00
2009,08,14,12,21,17.00
2009,08,14,12,22,17.00
2009,08,14,12,23,17.10
2009,08,14,12,24,17.10
2009,08,14,12,25,17.00
2009,08,14,12,26,16.80
2009,08,14,12,27,16.70
2009,08,14,12,28,16.70
2009,08,14,12,29,16.70
2009,08,14,12,30,16.90
2009,08,14,12,31,17.00
2009,08,14,12,32,17.20
2009,08,14,12,33,17.20
2009,08,14,12,34,17.30
2009,08,14,12,35,17.50
2009,08,14,12,36,17.50
2009,08,14,12,37,17.60
2009,08,14,12,38,17.70
2009,08,14,12,39,17.70
2009,08,14,12,40,17.60
2009,08,14,12,41,17.50
2009,08,14,12,42,17.40
2009,08,14,12,43,17.40
2009,08,14,12,44,17.30
2009,08,14,12,45,17.20
2009,08,14,12,46,17.20
2009,08,14,12,47,17.10
2009,08,14,12,48,17.10
2009,08,14,12,49,17.10
2009,08,14,12,50,17.10
2009,08,14,12,51,17.00
2009,08,14,12,52,16.90
2009,08,14,12,53,16.80
2009,08,14,12,54,16.80
2009,08,14,12,55,16.70
2009,08,14,12,56,16.70
2009,08,14,12,57,16.70
2009,08,14,12,58,16.80
2009,08,14,12,59,16.80
2009,08,14,13,00,16.90
2009,08,14,13,01,17.00
2009,08,14,13,02,17.10
2009,08,14,13,03,17.20
2009,08,14,13,04,17.20
2009,08,14,13,05,17.10
2009,08,14,13,06,17.20
2009,08,14,13,07,17.20
2009,08,14,13,08,17.20
2009,08,14,13,09,17.30
2009,08,14,13,10,17.30
2009,08,14,13,11,17.50
2009,08,14,13,12,17.60
2009,08,14,13,13,17.70
2009,08,14,13,14,17.70
2009,08,14,13,15,17.90
2009,08,14,13,16,18.00
2009,08,14,13,17,18.20
2009,08,14,13,18,18.30
2009,08,14,13,19,18.30
2009,08,14,13,20,18.50
2009,08,14,13,21,18.50
2009,08,14,13,22,18.60
2009,08,14,13,23,18.70
2009,08,14,13,24,18.90
2009,08,14,13,25,19.10
2009,08,14,13,26,19.20
2009,08,14,13,27,19.30
2009,08,14,13,28,19.40
2009,08,14,13,29,19.50
2009,08,14,13,30,19.60
2009,08,14,13,31,19.60
2009,08,14,13,32,19.50
2009,08,14,13,33,19.50
2009,08,14,13,34,19.50
2009,08,14,13,35,19.60
2009,08,14,13,36,19.50
2009,08,14,13,37,19.50
2009,08,14,13,38,19.60
2009,08,14,13,39,19.70
2009,08,14,13,40,19.70
2009,08,14,13,41,19.70
2009,08,14,13,42,19.70
2009,08,14,13,43,19.80
2009,08,14,13,44,19.80
2009,08,14,13,45,19.90
2009,08,14,13,46,20.00
2009,08,14,13,47,20.00
2009,08,14,13,48,20.00
2009,08,14,13,49,20.00
2009,08,14,13,50,20.00
2009,08,14,13,51,19.80
2009,08,14,13,52,19.70
2009,08,14,13,53,19.60
2009,08,14,13,54,19.60
2009,08,14,13,55,19.60
2009,08,14,13,56,19.60
2009,08,14,13,57,19.60
2009,08,14,13,58,19.60
2009,08,14,13,59,19.70
2009,08,14,14,00,19.90
2009,08,14,14,01,19.90
2009,08,14,14,02,19.90
2009,08,14,14,03,20.00
2009,08,14,14,04,20.10
2009,08,14,14,05,20.30
2009,08,14,14,06,20.40
2009,08,14,14,07,20.50
2009,08,14,14,08,20.40
2009,08,14,14,09,20.30
2009,08,14,14,10,20.30
2009,08,14,14,11,20.20
2009,08,14,14,12,20.20
2009,08,14,14,13,20.20
2009,08,14,14,14,20.30
2009,08,14,14,15,20.30
2009,08,14,14,16,20.30
2009,08,14,14,17,20.30
2009,08,14,14,18,20.30
2009,08,14,14,19,20.30
2009,08,14,14,20,20.40
2009,08,14,14,21,20.40
2009,08,14,14,22,20.40
2009,08,14,14,23,20.40
2009,08,14,14,24,20.40
2009,08,14,14,25,20.40
2009,08,14,14,26,20.40
2009,08,14,14,27,20.50
2009,08,14,14,28,20.50
2009,08,14,14,29,20.40
2009,08,14,14,30,20.30
2009,08,14,14,31,20.40
2009,08,14,14,32,20.50
2009,08,14,14,33,20.50
2009,08,14,14,34,20.70
2009,08,14,14,35,20.80
2009,08,14,14,36,20.90
2009,08,14,14,37,20.90
2009,08,14,14,38,20.90
2009,08,14,14,39,20.90
2009,08,14,14,40,20.90
2009,08,14,14,41,20.90
2009,08,14,14,42,21.00
2009,08,14,14,43,21.00
2009,08,14,14,44,20.90
2009,08,14,14,45,20.90
2009,08,14,14,46,20.80
2009,08,14,14,47,20.80
2009,08,14,14,48,20.80
2009,08,14,14,49,20.80
2009,08,14,14,50,20.90
2009,08,14,14,51,21.00
2009,08,14,14,52,21.10
2009,08,14,14,53,21.10
2009,08,14,14,54,21.00
2009,08,14,14,55,21.00
2009,08,14,14,56,20.90
2009,08,14,14,57,20.80
2009,08,14,14,58,20.80
2009,08,14,14,59,20.70
2009,08,14,15,00,20.50
2009,08,14,15,01,20.40
2009,08,14,15,02,20.30
2009,08,14,15,03,20.30
2009,08,14,15,04,20.40
2009,08,14,15,05,20.40
2009,08,14,15,06,20.40
2009,08,14,15,07,20.40
2009,08,14,15,08,20.30
2009,08,14,15,09,20.20
2009,08,14,15,10,20.20
2009,08,14,15,11,20.20
2009,08,14,15,12,20.10
2009,08,14,15,13,20.00
2009,08,14,15,14,20.00
2009,08,14,15,15,19.90
2009,08,14,15,16,20.00
2009,08,14,15,17,20.10
2009,08,14,15,18,20.20
2009,08,14,15,19,20.20
2009,08,14,15,20,20.30
2009,08,14,15,21,20.40
2009,08,14,15,22,20.50
2009,08,14,15,23,20.60
2009,08,14,15,24,20.50
2009,08,14,15,25,20.50
2009,08,14,15,26,20.40
2009,08,14,15,27,20.40
2009,08,14,15,28,20.30
2009,08,14,15,29,20.30
2009,08,14,15,30,20.20
2009,08,14,15,31,20.20
2009,08,14,15,32,20.20
2009,08,14,15,33,20.20
2009,08,14,15,34,20.10
2009,08,14,15,35,20.00
2009,08,14,15,36,19.80
2009,08,14,15,37,19.70
2009,08,14,15,38,19.70
2009,08,14,15,39,19.70
2009,08,14,15,40,19.80
2009,08,14,15,41,19.90
2009,08,14,15,42,20.00
2009,08,14,15,43,20.00
2009,08,14,15,44,19.90
2009,08,14,15,45,19.90
2009,08,14,15,46,19.90
2009,08,14,15,47,19.90
2009,08,14,15,48,20.00
2009,08,14,15,49,20.10
2009,08,14,15,50,20.20
2009,08,14,15,51,20.20
2009,08,14,15,52,20.30
2009,08,14,15,53,20.30
2009,08,14,15,54,20.30
2009,08,14,15,55,20.40
2009,08,14,15,56,20.40
2009,08,14,15,57,20.50
2009,08,14,15,58,20.50
2009,08,14,15,59,20.50
2009,08,14,16,00,20.50
2009,08,14,16,01,20.40
2009,08,14,16,02,20.40
2009,08,14,16,03,20.30
2009,08,14,16,04,20.30
2009,08,14,16,05,20.30
2009,08,14,16,06,20.30
2009,08,14,16,07,20.40
2009,08,14,16,08,20.50
2009,08,14,16,09,20.50
2009,08,14,16,10,20.60
2009,08,14,16,11,20.70
2009,08,14,16,12,20.80
2009,08,14,16,13,20.80
2009,08,14,16,14,20.90
2009,08,14,16,15,20.90
2009,08,14,16,16,20.90
2009,08,14,16,17,20.80
2009,08,14,16,18,20.70
2009,08,14,16,19,20.60
2009,08,14,16,20,20.50
2009,08,14,16,21,20.60
2009,08,14,16,22,20.60
2009,08,14,16,23,20.70
2009,08,14,16,24,20.70
2009,08,14,16,25,20.80
2009,08,14,16,26,20.90
2009,08,14,16,27,21.00
2009,08,14,16,28,21.10
2009,08,14,16,29,21.10
2009,08,14,16,30,21.20
2009,08,14,16,31,21.20
2009,08,14,16,32,21.20
2009,08,14,16,33,21.20
2009,08,14,16,34,21.30
2009,08,14,16,35,21.30
2009,08,14,16,36,21.30
2009,08,14,16,37,21.30
2009,08,14,16,38,21.30
2009,08,14,16,39,21.30
2009,08,14,16,40,21.40
2009,08,14,16,41,21.40
2009,08,14,16,42,21.40
2009,08,14,16,43,21.50
2009,08,14,16,44,21.60
2009,08,14,16,45,21.60
2009,08,14,16,46,21.60
2009,08,14,16,47,21.50
2009,08,14,16,48,21.40
2009,08,14,16,49,21.30
2009,08,14,16,50,21.20
2009,08,14,16,51,21.10
2009,08,14,16,52,21.00
2009,08,14,16,53,21.00
2009,08,14,16,54,21.00
2009,08,14,16,55,20.90
2009,08,14,16,56,20.80
2009,08,14,16,57,20.70
2009,08,14,16,58,20.70
2009,08,14,16,59,20.60
2009,08,14,17,00,20.50
2009,08,14,17,01,20.40
2009,08,14,17,02,20.40
2009,08,14,17,03,20.30
2009,08,14,17,04,20.20
2009,08,14,17,05,20.10
2009,08,14,17,06,20.00
2009,08,14,17,07,20.00
2009,08,14,17,08,19.90
2009,08,14,17,09,20.00
2009,08,14,17,10,20.00
2009,08,14,17,11,20.10
2009,08,14,17,12,20.20
2009,08,14,17,13,20.20
2009,08,14,17,14,20.30
2009,08,14,17,15,20.30
2009,08,14,17,16,20.30
2009,08,14,17,17,20.20
2009,08,14,17,18,20.20
2009,08,14,17,19,20.10